Back to catalog

STARLINK-6094

AliveCommunicationsVLEO
NORAD 56122·PAYLOAD·🇺🇸 United States

Launched Mar 29, 2023 from Cape Canaveral Space Force Station

Loading…

Next Passes (next 24 hours)

TLE

FreshSource: CelesTrak SupGP

Epoch: Sep 15, 2026, 01:40 UTC

1 56122C 23046AF  26258.06993056  .00006589  00000+0  23866-3 0  2585
2 56122  43.0022 168.8792 0001829 270.9600  20.2301 15.27571815    15

Track STARLINK-6094 in real time with AllMySat

Download on the App Store